{"data":{"norad_id":64196,"epoch":"2026-09-20T16:52:06.046464Z","epoch_age_seconds":122822,"freshness":"FRESH","line1":"1 64196U 25113AC  26263.70284776  .00012338  00000+0  40856-3 0  9990","line2":"2 64196  53.1556 263.8160 0000992  82.3718 277.7396 15.31711276 74947","mean_motion":15.31711276,"eccentricity":9.92e-5,"inclination_deg":53.1556,"raan_deg":263.816,"arg_perigee_deg":82.3718,"mean_anomaly_deg":277.7396,"bstar":0.00040856,"rev_number":7494,"period_min":94.012495864136,"perigee_km":470.02697699909,"apogee_km":471.38578752613,"semimajor_km":6848.8433822626,"source":"CELESTRAK","updated_at":"2026-09-21T09:00:35.269406Z"}}